Weather History for LGEL - October, 2014

Change the Weather History Date:

Tuesday, October 21, 2014

  Actual Average Record
Temperature  
Mean Temperature 64 °F -  
Max Temperature 76 °F 66 °F 86 °F (2003)
Min Temperature 51 °F 51 °F 42 °F (1997)
Degree Days  
Heating Degree Days 2    
Growing Degree Days 14 (Base 50)    
Moisture  
Dew Point 47 °F    
Average Humidity 56    
Maximum Humidity 77    
Minimum Humidity 27    
Precipitation  
Precipitation 0.00 in - - ()
Sea Level Pressure  
Sea Level Pressure 29.96 in    
Wind  
Wind Speed 5 mph ()    
Max Wind Speed 12 mph    
Max Gust Speed -    
Visibility 6.0 miles    
Events      
Averages and records for this station are not official NWS values.
T = Trace of Precipitation, MM = Missing Value Source: Averaged Metar Reports

Daily Weather History Graph

Daily Weather History Graph

Search for Another Location

Airport or City:

Trip Planner

Search our weather history database for the weather conditions in past years. The results will help you decide how hot, cold, wet, or windy it might be!

Date:

Astronomy

Oct. 21, 2014 Rise Set
Actual Time 7:39 AM EEST 6:40 PM EEST
Civil Twilight 7:13 AM EEST 7:07 PM EEST
Nautical Twilight 6:42 AM EEST 7:37 PM EEST
Astronomical Twilight 6:11 AM EEST 8:08 PM EEST
Moon 5:08 AM EEST (10/21) 5:22 PM EEST (10/21)
Length of Visible Light 11h 53m
Length of Day
11h 00m
Waning Crescent, 6% of the Moon is Illuminated
Oct 21
Waning Crescent
Oct 24
New
Oct 31
First Quarter
Nov 7
Full
Nov 14
Last Quarter

Hourly Weather History & Observations

Time (EEST) Temp. Dew Point Humidity Pressure Visibility Wind Dir Wind Speed Gust Speed Precip Events Conditions
12:00 AM 60 °F 44 °F 44% 30.07 in 6 mi WNW 5.8 mph - -  
12:20 AM 60.8 °F 44.6 °F 55% 30.06 in - WNW 5.8 mph - N/A   Clear
12:50 AM 59.0 °F 44.6 °F 59% 30.06 in - NW 4.6 mph - N/A   Clear
1:20 AM 59.0 °F 44.6 °F 59% 30.04 in - North 8.1 mph - N/A   Clear
1:50 AM 57.2 °F 44.6 °F 63% 30.04 in - NNW 6.9 mph - N/A   Clear
2:20 AM 57.2 °F 44.6 °F 63% 30.04 in - NNW 6.9 mph - N/A   Clear
2:50 AM 57.2 °F 44.6 °F 63% 30.04 in - NNW 5.8 mph - N/A   Clear
3:00 AM 57 °F 45 °F 55% 30.04 in 6 mi NNW 5.8 mph - -  
3:20 AM 55.4 °F 44.6 °F 67% 30.04 in - NNW 4.6 mph - N/A   Clear
3:50 AM 55.4 °F 44.6 °F 67% 30.01 in - NE 3.5 mph - N/A   Clear
4:50 AM 53.6 °F 46.4 °F 77% 30.01 in - NNE 3.5 mph - N/A   Clear
5:20 AM 53.6 °F 44.6 °F 72% 30.01 in - Calm Calm - N/A   Clear
5:50 AM 53.6 °F 44.6 °F 72% 30.01 in - North 3.5 mph - N/A   Clear
6:00 AM 53 °F 45 °F 67% 30.02 in 6 mi North 3.5 mph - -  
6:20 AM 51.8 °F 42.8 °F 71% 30.01 in - North 3.5 mph - N/A   Clear
6:50 AM 53.6 °F 44.6 °F 72% 30.01 in - NNW 4.6 mph - N/A   Clear
7:20 AM 53.6 °F 42.8 °F 67% 30.01 in - North 6.9 mph - N/A   Clear
8:20 AM 53.6 °F 42.8 °F 67% 30.01 in - NNW 8.1 mph - N/A   Clear
8:50 AM 57.2 °F 42.8 °F 59% 29.98 in - NNW 8.1 mph - N/A   Clear
9:00 AM 58 °F 44 °F 48% 30.00 in 6 mi NNW 8.1 mph - -  
9:20 AM 60.8 °F 42.8 °F 52% 29.98 in - NNW 8.1 mph - N/A   Clear
9:50 AM 66.2 °F 46.4 °F 49% 30.01 in - Calm Calm - N/A   Clear
10:20 AM 68.0 °F 46.4 °F 46% 29.98 in - Calm Calm - N/A   Clear
10:50 AM 69.8 °F 44.6 °F 40% 29.98 in - Calm Calm - N/A   Clear
11:20 AM 69.8 °F 44.6 °F 40% 29.98 in - Calm Calm - N/A   Clear
11:50 AM 71.6 °F 44.6 °F 38% 29.98 in - SSE 6.9 mph - N/A   Clear
12:00 PM 71 °F 44 °F 27% 29.99 in 6 mi SSE 6.9 mph - -  
12:20 PM 73.4 °F 44.6 °F 36% 29.98 in - South 6.9 mph - N/A   Clear
12:50 PM 73.4 °F 48.2 °F 41% 29.98 in - SSE 6.9 mph - N/A   Clear
1:20 PM 73.4 °F 50.0 °F 44% 29.98 in - SSW 6.9 mph - N/A   Clear
1:50 PM 75.2 °F 48.2 °F 38% 29.95 in - South 5.8 mph - N/A   Clear
2:20 PM 75.2 °F 48.2 °F 38% 29.95 in - South 5.8 mph - N/A   Clear
3:20 PM 77.0 °F 44.6 °F 32% 29.92 in - WSW 5.8 mph - N/A   Clear
3:50 PM 75.2 °F 46.4 °F 36% 29.89 in - South 9.2 mph - N/A   Clear
4:20 PM 75.2 °F 46.4 °F 36% 29.89 in - South 9.2 mph - N/A   Clear
4:50 PM 73.4 °F 53.6 °F 50% 29.89 in - South 11.5 mph - N/A   Clear
5:20 PM 73.4 °F 53.6 °F 50% 29.89 in - South 11.5 mph - N/A   Clear
5:50 PM 71.6 °F 53.6 °F 53% 29.89 in - South 11.5 mph - N/A   Clear
6:00 PM 72 °F 54 °F 42% 29.89 in 6 mi South 11.5 mph - -  
6:20 PM 71.6 °F 53.6 °F 53% 29.89 in - South 11.5 mph - N/A   Clear
6:50 PM 68.0 °F 53.6 °F 60% 29.89 in - South 9.2 mph - N/A   Clear
7:20 PM 66.2 °F 51.8 °F 60% 29.89 in - South 9.2 mph - N/A   Clear
7:50 PM 68.0 °F 53.6 °F 60% 29.89 in - Calm Calm - N/A   Clear
8:20 PM 64.4 °F 53.6 °F 68% 29.89 in - Calm Calm - N/A   Clear
8:50 PM 64.4 °F 51.8 °F 64% 29.89 in - North 5.8 mph - N/A   Clear
9:00 PM 64 °F 52 °F 56% 29.91 in 6 mi North 5.8 mph - -  
9:20 PM 60.8 °F 51.8 °F 72% 29.89 in - North 5.8 mph - N/A   Clear
9:50 PM 60.8 °F 50.0 °F 68% 29.89 in - North 6.9 mph - N/A   Clear
10:20 PM 60.8 °F 50.0 °F 68% 29.89 in - North 6.9 mph - N/A   Clear
10:50 PM 59.0 °F 50.0 °F 72% 29.89 in - NW 6.9 mph - N/A   Clear
11:20 PM 59.0 °F 50.0 °F 72% 29.89 in - NW 6.9 mph - N/A   Clear
11:50 PM 59.0 °F 50.0 °F 72% 29.89 in - North 6.9 mph - N/A   Clear